Regional Weather Roundup
Issued by NWS

Home | Current Version | Previous Version | Graphics & Text | Print | Product List | Glossary Off
Versions: 1 2 3 4 5 6 7 8 9 10 11 12 13 14 15 16 17 18 19 20 21 22 23 24 25 26 27

000
ASUS45 KCYS 252110
RWRWY

WYOMING REGIONAL WEATHER ROUNDUP
NATIONAL WEATHER SERVICE CHEYENNE WY
300 PM MDT MON SEP 25 2017

NOTE:  "FAIR" INDICATES FEW OR NO CLOUDS BELOW 12,000 FEET
WITH NO SIGNIFICANT WEATHER AND/OR OBSTRUCTIONS TO VISIBILITY.

WYZ001-252200-
YELLOWSTONE NATIONAL PARK

CITY           SKY/WX    TMP DP  RH WIND       PRES   REMARKS
LK YELLOWSTONE NOT AVBL
W YELLOWSTONE  NOT AVBL

$$
WYZ002>013-054>058-071-098>099-252200-
NORTHERN WYOMING

CITY           SKY/WX    TMP DP  RH WIND       PRES   REMARKS
JACKSON        CLOUDY    46  28  49 NW14      30.12R
CODY           CLOUDY    50  32  50 VRB5      30.08S
GREYBULL       PTSUNNY   50  41  71 VRB3      30.07F
WORLAND        FAIR      52  39  61 W3        30.07F
SHERIDAN       CLOUDY    53  38  56 VRB3      30.07F
BUFFALO        LGT RAIN  45  37  73 VRB3      30.09S
GILLETTE       CLOUDY    48  39  71 W5        30.07F
HULETT         CLOUDY    46  41  81 NW6       30.09S
NEWCASTLE      CLOUDY    48  37  66 S7        30.10S

$$
WYZ014>020-022>026-101>103-252200-
CENTRAL WYOMING

CITY           SKY/WX    TMP DP  RH WIND       PRES   REMARKS
BIG PINEY      CLOUDY    45  32  60 NW7       30.12S
PINEDALE       FAIR      45  32  61 NW6G16    30.12S
DUBOIS         CLOUDY    41  28  60 W10       30.09S
LANDER         PTSUNNY   50  34  54 NE3       30.07F
RIVERTON       CLOUDY    49  34  56 NE5       30.08F
CASPER         PTSUNNY   49  35  58 SW9       30.07F
DOUGLAS        FAIR      51  38  60 CALM      30.08F

$$
WYZ021-027>030-104>119-252200-
SOUTHERN WYOMING

CITY           SKY/WX    TMP DP  RH WIND       PRES   REMARKS
EVANSTON       CLOUDY    44  29  55 W5        30.14S
FORT BRIDGER   CLOUDY    48  30  50 NW6       30.16S
ROCK SPRINGS   CLOUDY    44  30  57 W8        30.12S
DIXON          CLOUDY    49  31  50 W5        30.14S
RAWLINS        CLOUDY    44  31  60 W7        30.11S
SARATOGA       CLOUDY    46  30  53 W5        30.12S
LARAMIE        CLOUDY    47  30  51 N6        30.08R
CHEYENNE       FAIR      54  34  46 SE9       30.07F
TORRINGTON     FAIR      54  39  57 VRB3      30.07F
PINE BLUFFS    MOCLDY    54  41  62 NE7       30.08S

$$




USA.gov is the U.S. government's official web portal to all federal, state and local government web resources and services.